Weather History for Yellowknife, N. W. T., Northwest Territories

Change the Weather History Date:

Friday, November 8, 2013

  Actual Average Record
Temperature  
Mean Temperature 4 °F -  
Max Temperature 11 °F 8 °F - ()
Min Temperature -2 °F -7 °F - ()
Degree Days  
Heating Degree Days 60    
Moisture  
Dew Point 3 °F    
Average Humidity 82    
Maximum Humidity 92    
Minimum Humidity 70    
Precipitation  
Precipitation 0.02 in 0.03 in - ()
Sea Level Pressure  
Sea Level Pressure 30.14 in    
Wind  
Wind Speed 8 mph ()    
Max Wind Speed 14 mph    
Max Gust Speed 18 mph    
Visibility 11.0 miles    
Events Snow    
T = Trace of Precipitation, MM = Missing Value Source: Averaged Metar Reports

Daily Weather History Graph

Daily Weather History Graph

Search for Another Location

Airport:

Trip Planner

Search our weather history database for the weather conditions in past years. The results will help you decide how hot, cold, wet, or windy it might be!

Date:

Astronomy

Nov. 08, 2013 Rise Set
Actual Time 8:33 AM MST 4:08 PM MST
Civil Twilight 7:41 AM MST 5:00 PM MST
Nautical Twilight 6:45 AM MST 5:56 PM MST
Astronomical Twilight 5:53 AM MST 6:48 PM MST
Moon 1:31 PM MST (11/8) 9:41 PM MST (11/8)
Length of Visible Light 9h 19m
Length of Day
7h 35m
Waxing Crescent, 34% of the Moon is Illuminated
Nov 8
Waxing Crescent
Nov 9
First Quarter
Nov 17
Full
Nov 25
Last Quarter
Dec 2
New

Hourly Weather History & Observations

Time (MST) Temp. Windchill Dew Point Humidity Pressure Visibility Wind Dir Wind Speed Gust Speed Precip Events Conditions
12:00 AM 10.4 °F -0.4 °F 8.6 °F 92% 30.06 in 15.0 mi NNW 6.9 mph - N/A Snow Light Snow
1:00 AM 10.4 °F -1.5 °F 6.8 °F 85% 30.07 in 10.0 mi NNW 8.1 mph - N/A Snow Light Snow
2:00 AM 8.6 °F -2.6 °F 5.0 °F 85% 30.07 in 15.0 mi NNW 6.9 mph - N/A Snow Light Snow
2:18 AM 6.8 °F -5.9 °F 3.2 °F 85% 30.07 in 15.0 mi NNW 8.1 mph - N/A   Clear
3:00 AM 6.8 °F -5.9 °F 3.2 °F 85% 30.08 in 15.0 mi NNW 8.1 mph - N/A   Clear
4:00 AM 5.0 °F -8.1 °F 3.2 °F 92% 30.08 in 15.0 mi NNW 8.1 mph - N/A   Clear
5:00 AM 6 °F - 3 °F 80% 30.09 in 15 mi NNW 9.2 mph - -   Partly Cloudy
5:00 AM 6.8 °F -7.8 °F 3.2 °F 85% 30.08 in 15.0 mi NNW 10.4 mph - N/A   Clear
5:16 AM 6.8 °F -7.8 °F 3.2 °F 85% 30.08 in 15.0 mi NNW 10.4 mph - N/A Snow Light Snow
6:00 AM 6.8 °F -7.8 °F 3.2 °F 85% 30.08 in 10.0 mi North 10.4 mph - N/A Snow Light Snow
6:21 AM 8.6 °F -5.5 °F 5.0 °F 85% 30.08 in 4.0 mi North 10.4 mph - N/A Snow Light Snow
7:00 AM 8.6 °F -3.7 °F 5.0 °F 85% 30.09 in 2.5 mi North 8.1 mph - N/A Snow Light Snow
8:00 AM 8.6 °F -4.7 °F 5.0 °F 85% 30.09 in 3.0 mi North 9.2 mph - N/A Snow Light Snow
8:34 AM 10.4 °F -1.5 °F 6.8 °F 85% 30.10 in 2.5 mi North 8.1 mph - N/A Snow Light Snow
8:49 AM 10.4 °F -2.4 °F 6.8 °F 85% 30.10 in 3.0 mi North 9.2 mph - N/A Snow Light Snow
9:00 AM 10.4 °F -3.3 °F 6.8 °F 85% 30.11 in 3.0 mi North 10.4 mph - N/A Snow Light Snow
9:10 AM 10.4 °F -2.4 °F 6.8 °F 85% 30.11 in 2.5 mi North 9.2 mph - N/A Snow Light Snow
10:00 AM 10.4 °F -3.3 °F 6.8 °F 85% 30.12 in 2.0 mi North 10.4 mph - N/A Snow Light Snow
10:23 AM 10.4 °F -2.4 °F 5.0 °F 79% 30.12 in 3.0 mi North 9.2 mph - N/A Snow Light Snow
11:00 AM 10 °F - 5 °F 72% 30.13 in 5 mi North 11.5 mph - - Snow Light Snow
11:00 AM 10.4 °F -4.1 °F 5.0 °F 79% 30.13 in 5.0 mi North 11.5 mph - N/A Snow Light Snow
12:00 PM 10.4 °F -5.4 °F 5.0 °F 79% 30.14 in 10.0 mi North 13.8 mph - N/A Snow Light Snow
1:00 PM 8.6 °F -6.3 °F 3.2 °F 79% 30.14 in 15.0 mi North 11.5 mph 18.4 mph N/A Snow Light Snow
1:41 PM 8.6 °F -6.3 °F 3.2 °F 79% 30.15 in 15.0 mi North 11.5 mph - N/A   Mostly Cloudy
2:00 PM 8.6 °F -7.0 °F 3.2 °F 79% 30.16 in 15.0 mi North 12.7 mph - N/A   Mostly Cloudy
3:00 PM 6.8 °F -8.6 °F 1.4 °F 79% 30.17 in 15.0 mi North 11.5 mph - N/A   Mostly Cloudy
4:00 PM 5.0 °F -10.0 °F -0.4 °F 78% 30.19 in 15.0 mi North 10.4 mph - N/A   Mostly Cloudy
5:00 PM 4 °F - -1 °F 70% 30.20 in 15 mi North 10.4 mph - -   Partly Cloudy
5:00 PM 3.2 °F -12.2 °F -0.4 °F 85% 30.20 in 15.0 mi North 10.4 mph - N/A   Scattered Clouds
6:00 PM 3.2 °F -13.1 °F -2.2 °F 78% 30.22 in 15.0 mi North 11.5 mph - N/A   Partly Cloudy
7:00 PM 3.2 °F -12.2 °F -2.2 °F 78% 30.23 in 15.0 mi North 10.4 mph - N/A   Clear
8:00 PM 1.4 °F -14.5 °F -4.0 °F 78% 30.24 in 15.0 mi North 10.4 mph - N/A   Partly Cloudy
9:00 PM -0.4 °F -16.7 °F -4.0 °F 85% 30.26 in 15.0 mi North 10.4 mph - N/A   Partly Cloudy
10:00 PM -0.4 °F -15.7 °F -5.8 °F 78% 30.28 in 15.0 mi North 9.2 mph - N/A   Clear
11:00 PM -2 °F - -6 °F 77% 30.30 in 15 mi North 9.2 mph - -   Partly Cloudy
11:00 PM -2.2 °F -18.0 °F -5.8 °F 85% 30.30 in 15.0 mi North 9.2 mph - N/A   Scattered Clouds